This demonstration page uses our WeatherBlox Daily Observations layout. Learn more.

41.55636, -103.73856

Hourly Observations for August 18, 2019

Temp ( °F °C ) Dew Point ( °F °C ) Humidity (%) Winds ( mph kmh ) Pressure ( in mb ) Visibility ( mi km ) Precip ( " mm )
12:58 am 00:58 Mostly Clear 80 26.6 40 4.4 24 24 WSW 13 20 29.64 1004 10 16.0934 0 0
1:58 am 01:58 Mostly Clear 79 26.2 33 0.5 19 19 W 20 31 29.66 1004 10 16.0934 0 0
2:58 am 02:58 Clear 71 21.5 39 3.9 32 32 W 12 19 29.71 1006 10 16.0934 0 0
3:58 am 03:58 Mostly Cloudy 62 16.7 57 13.8 83 83 NE 20 31 29.79 1009 10 16.0934 0 0
4:58 am 04:58 Cloudy 61 16.1 56 13.6 85 85 NE 13 20 29.82 1010 10 16.0934 0 0
5:58 am 05:58 Cloudy 60 15.7 56 13.3 86 86 NE 9 15 29.83 1010 10 16.0934 0 0
6:58 am 06:58 Cloudy 59 15.1 56 13.1 88 88 NNE 14 22 29.85 1011 10 16.0934 0 0
7:58 am 07:58 Cloudy with Light Showers 56 13.4 54 12.2 93 93 NE 14 22 29.86 1011 6 9.65604 0 0
8:58 am 08:58 Cloudy 56 13.4 53 11.5 88 88 E 9 15 29.89 1012 10 16.0934 0 0
9:58 am 09:58 Cloudy 56 13.5 52 11.2 86 86 ESE 8 13 29.88 1012 10 16.0934 0 0
10:58 am 10:58 Cloudy 56 13.3 52 11.1 87 87 E 5 7 29.89 1012 10 16.0934 0 0
11:58 am 11:58 Cloudy 56 13.2 52 11.1 87 87 SE 8 13 29.9 1013 10 16.0934 0 0
12:58 pm 12:58 Mostly Cloudy 56 13.3 52 10.9 86 86 SE 5 7 29.93 1014 10 16.0934 0 0
1:58 pm 13:58 Mostly Cloudy 58 14.6 52 11.3 81 81 SSE 6 9 29.93 1014 10 16.0934 0 0
2:58 pm 14:58 Partly Cloudy 63 17.1 53 11.7 71 71 S 13 20 29.95 1014 10 16.0934 0 0
3:58 pm 15:58 Partly Cloudy 65 18.6 51 10.8 61 61 SSW 13 20 29.95 1014 10 16.0934 0 0
4:58 pm 16:58 Mostly Sunny 68 20.2 52 11.1 56 56 S 15 24 29.94 1014 10 16.0934 0 0
5:58 pm 17:58 Sunny 72 22.2 52 11.1 50 50 SSW 18 30 29.9 1013 10 16.0934 0 0
6:58 pm 18:58 Sunny 77 25 51 10.7 41 41 SSW 17 28 29.86 1011 10 16.0934 0 0
7:58 pm 19:58 Sunny 82 27.6 50 10.2 34 34 SSW 15 24 29.84 1011 10 16.0934 0 0
8:58 pm 20:58 Sunny 85 29.4 49 9.6 29 29 S 13 20 29.82 1010 10 16.0934 0 0
9:58 pm 21:58 Sunny 87 30.5 48 9.1 26 26 SSE 13 20 29.78 1009 10 16.0934 0 0
10:58 pm 22:58 Sunny 86 30.2 47 8.6 26 26 S 18 30 29.78 1009 10 16.0934 0 0
11:58 pm 23:58 Sunny 84 29 49 9.5 30 30 S 21 33 29.77 1008 10 16.0934 0 0

Powered by AerisWeather